Location: 81360 Arifat, France
(43.7204°N, 2.3408°E)
Time: 01:22:55
(UTC+02:00)

N. Korean satellite - Visible Passes

Search period start: 29 September 2021 00:00
Search period end: 09 October 2021 00:00
Orbit: 449 x 498 km, 97.3° (Epoch: 28 September)

Date Brightness Start Highest point End Pass type
(mag) Time Alt. Az. Time Alt. Az. Time Alt. Az.
29 Sep 8.0 06:48:39 10° NNE 06:52:05 42° E 06:55:32 10° S visible
30 Sep 9.5 06:21:26 10° NE 06:24:07 20° E 06:26:49 10° SE visible
02 Oct 7.3 06:58:12 10° NNE 07:01:47 58° E 07:05:21 10° S visible
03 Oct 9.0 06:30:45 10° NE 06:33:48 26° E 06:36:53 10° SSE visible
04 Oct 10.0 06:04:10 10° ENE 06:05:45 12° E 06:07:17 10° ESE visible
05 Oct 6.8 07:07:42 10° NNE 07:11:20 79° ESE 07:14:58 10° S visible
06 Oct 8.5 06:40:03 10° NNE 06:43:23 33° E 06:46:43 10° SSE visible
07 Oct 9.8 06:12:59 10° NE 06:15:18 16° E 06:17:38 10° SE visible
08 Oct 6.5 07:17:09 10° N 07:20:47 78° WNW 07:24:26 10° SSW visible
